C/2002 K2 ( LINEAR )

Japanese version
Home page
Updated on May 27, 2003

---------------------------------------------------------------------

* Profile

Discovery Date May 16, 2002
Magnitude 18.2 mag
Discoverer Lincoln Laboratory Near-Earth Asteroid Research project

* Orbital Elements

Epoch 2002 Jan. 6.0 TT = JDT 2452280.5
T 2002 Jan. 5.96475 TT                                  MPC
q   5.2351762            (2000.0)            P               Q
z  +0.0012460      Peri.   26.67895     +0.10398368     -0.71865863
 +/-0.0000088      Node   294.55612     -0.99273833     -0.11703526
e   0.9934768      Incl.  130.89478     -0.06048147     +0.68544330

* Finding Charts

* Magnitudes Graph

        m1 = 8.0 + 5 log d + 10.0 log r

---------------------------------------------------------------------

The orbital elements are calculated by Dr. Brian G. Marsden and printed on M.P.E.C. 2003-K06.
The charts are made with StellaNavigator Ver.2.0 for Windows (AstroArts / ASCII).
The magnitudes graphs are made with Comet for Windows.

---------------------------------------------------------------------

Copyright(C) Seiichi Yoshida (comet@aerith.net). All rights reserved.